Meath Environmental Platform

Observations for Trim Patrick St

Time AQI Temp °C Hum % Pres Pa CO μg/m³ H₂S μg/m³ NO μg/m³ NO₂ μg/m³ O₃ μg/m³ SO₂ μg/m³ PM1 μg/m³ PM2.5 μg/m³ PM10 μg/m³
Tuesday 4 August 2026
06:11 1 17.4 88 38,385 0.17 3.42 2.39 18.59 35.62 0 8 11.5 12.65
06:10 1 17.4 88 38,389 0.17 3.21 2.38 16.27 41.17 0 9.71 12.18 13.4
06:09 1 17.4 88 38,394 0.17 2.09 2.38 10.62 30.82 0 8.86 11.49 12.64
06:08 1 17.4 88 38,401 0.16 3.61 2.38 14.63 45.41 0 8.86 12.18 13.4
06:07 1 17.4 88 38,410 0.16 2.69 2.38 16.01 44.51 0 7.14 10.14 11.15
06:06 1 17.3 88 38,422 0.16 1.96 2.38 12.54 42.44 0 7.14 10.12 11.14
06:05 1 17.3 88 38,439 0.17 2.82 2.38 8.23 35.62 0 8 10.13 11.15
06:04 1 17.3 88 38,459 0.19 4.1 2.37 17.74 32.28 0 8 12.19 13.41
06:03 1 17.3 88 38,459 0.2 4.05 2.34 27.6 50.05 0 10.57 14.27 15.7
06:02 1 17.3 88 38,459 0.16 2.35 2.35 18.9 41.8 0 8.86 13.58 14.94
06:01 1 17.3 88 38,459 0.16 0 2.38 3.71 28.86 0 8.86 12.19 13.41
06:00 1 17.3 88 38,459 0.15 1.91 2.36 6.94 31.02 0 8.86 11.52 12.67
05:59 1 17.3 88 38,459 0.16 2.82 2.34 22.17 53.94 0 9.71 12.9 14.19
05:58 1 17.3 88 38,459 0.16 2.43 2.35 12.27 37.1 0 9.71 14.27 15.7
05:57 1 17.3 88 38,459 0.15 3.58 2.33 18.13 50.04 0 10.57 14.97 16.46
05:56 1 17.3 88 38,459 0.17 2.48 2.32 18.46 49.52 0 11.43 14.99 16.48
05:55 1 17.3 87 38,459 0.17 2.56 2.31 14.89 46.37 0 10.57 15.01 16.52
05:54 1 17.2 87 38,459 0.15 2.69 2.29 20.05 51.67 0 9.71 13.65 15.02
05:53 1 17.2 88 38,459 0.16 1.59 2.32 15.87 46.49 0 9.71 14.98 16.47
05:52 1 17.2 88 38,459 0.17 1.65 2.31 15.92 47.93 0 8.86 13.63 14.99